Погода в Цзясине

Китай     30°46′01″N   120°44′35″E
темп.,
°C
ветер,
м/с
пор.,
м/с
влажн.,
%
обл.,
%
осадки,
мм/ч
давл.,
гПа
погр.,
м
10 мая, пн
пн1023:00+21юв49800 0.0 1007143
02:00+20юв35850 0.0 100572
05:00+20ююв35810 0.0 100581
08:00+26ююв46550 0.0 1007302
11:00+32ю45360 0.0 1006884
14:00+34ю333761 0.0 10041432
17:00+31вюв444898 0.0 1003306
20:00+23вюв4773100 0.1 1004126
11 мая, вт
вт1123:00+23с1177100 0.3 100611
02:00+22з2788100 4.0 1005196
05:00+21юз5887100 1.0 1005254
08:00+21ююв2491100 1.4 1006151
11:00+27ю4464100 0.6 10061181
14:00+27ю1265100 3.0 10041055
17:00+25ссв2380100 1.1 1004298
20:00+22в0191100 1.6 100640
12 мая, ср
ср1223:00+21зюз1196100 2.6 100776
02:00+21з229487 2.8 100677
05:00+20зсз1194100 0.0 100613
08:00+23ссз2281100 0.0 1007473
11:00+27ссз2266100 0.2 10071152
14:00+29ссз1255100 0.3 10051474
17:00+26юв2373100 0.1 1005220
20:00+21вюв4887100 0.4 1007263
13 мая, чт
чт1323:00+20в369099 0.1 1008222
02:00+19в3595100 0.4 1007209
05:00+19в3694100 0.0 1008255
08:00+21в4485100 0.0 1010512
11:00+21вюв5584100 0.0 1009526
14:00+24вюв457537 0.1 1008602
17:00+23вюв5578100 0.0 1007489
20:00+19вюв4892100 0.8 1008263
14 мая, пт
пт1423:00+19в3796100 1.9 1008273
02:00+20вюв3797100 2.6 1005210
05:00+20ююв2499100 0.9 1006150
08:00+21ююв3697100 2.8 1007203
11:00+24ю4789100 0.5 1005349
14:00+24зюз1293100 7.6 1004206
17:00+25юв348698 1.3 1004429
20:00+22юв3895100 3.3 1004186